Disclaimer   
PNR Super Search
 ♦ 
×
HashTag:
PNR Number:
Train Type:
Train:
From Station:
To Station:
Train Class:
2SSLCCEx3AFC2A1A3E
WL Quota:
DOJ From:
DOJ To:
Blogger:
Traveller:
Predictor:
Prediction:
WLRACConf
Stamper:
Final:
WLRACConfVoidQ-ConfUnStamped
Status:
Reaction:

Search
  Go  
 
Sun Mar 1, 2015 12:20:27 ISTHomeTrainsΣChainsAtlasPNRForumGalleryNewsFAQTripsMembersLoginFeedback
Sun Mar 1, 2015 12:20:27 IST
Post PNRPNR StatusModify Search

Ticket PNR Status Inquiry - PNR: 611-xxxxxxx

OLD STATUS

Status Last Updated on: Dec 19 2012 (12:35PM) IST

Date of Journey: Wed Dec 19, 2012   Class: AC 3-tier - 3A   (Total Seats available for this Class/Quota: Avbl >3)
Passenger 1: Can/Mod (Booking Status: W/L 4,RLGN)
Passenger 2: Can/Mod (Booking Status: W/L 5,RLGN)
Chart NOT Prepared

Dhanbad-Alappuzha Express (PT)/13351

Travel Time: 48h 47m    79 halts    Distance: 2232 km    Avg Speed: 45 km/hr
Type: Mail/Express
Zone: ECR/East Central
Departs @ 15:25 (Avg 17m late)
Platform# ???
SMTWTFS
HTE/Hatia 
Arrives @ 16:12 +2 nights (Avg 30m late)
Platform# 1
SMTWTFS
TCR/Thrissur 

79 halts. 353 intermediate Stations between Hatia and Thrissur

Show ALL intermediate Stations  Show Old Time-Table

#TrkCodeStation NameX/OArrivesAvgDepartsAvgHaltPFDay#KmSpeedElevZoneAddress
1/==/DHNDhanbad Junction  -10:50+251-169.230235mECR2319801. Div. HQ ECR, Jharkhand
2/==/KTHKatrasgarh  11:18+211:20+22m11-155.434198mECRKatrasgarh, Jharkhand
3/--/CRPChandrapura JunctionX  11:56+111:58+22m11-134.935227mECR06549-242555, Jharkhand
4/==/BKSCBokaro Steel City  12:25+312:35+210m21-119.371245mSER06542-253861, Jharkhand
5/==/PNWPundhag  12:49+312:50+41m21-102.763291mSERDist - Puruliya -723215, West Bengal
6/==/JAAJhalida  13:12+713:13+81m--1-79.438297mSERJhalida, West Bengal
7/==/MURIMuri JunctionX  13:33+513:35+52m21-66.748254mSER06522-222444, Jharkhand
8/==/RNCRanchi JunctionX  14:50+915:05+1715m31-7.028632mSERDiv HQ SER, Jharkhand
9/==/HTEHatia»  15:20+1615:25+175m--10.078657mSER2788599, Jharkhand
10/--/GBXGovindpur Road  15:57+2315:58+241m--141.782577mSERkhunti, Jharkhand
11/--/BANOBano  16:37+2316:38+291m--194.936452mSERDist. Gumla, Jharkhand
12/--/NXNNuagaon  17:49+517:50+91m--1137.052218mSERKeonjhar, Odisha
13/-=/BNDMBondamunda  18:14+1618:15+161m--1157.726213mSERRourkela, Odisha
14/--/ROURourkela JunctionX  18:30+1219:00+2130m21164.264198mSERRourkela, Odisha
15/==/GPRaj GangpurO  19:28+2119:29+221m11194.169237mSERRaj Ganpur, Odisha
16/==/BMBBamraX  19:59+1820:00+181m--1228.755259mSERBamra PH : 06642-229268, Odisha
17/==/JSGJharsuguda Junction  20:40+820:50+710m11265.269236mSERJharsuguda, Odisha
18|==!RGLRengaliO  21:13+3221:15+322m--1291.669208mECoRState Highway 10, Odisha
19|==|SBPDSambalpur Road  21:33+221:35+22m--1312.39161mECoRSambalpur, Odisha
20|--|SBPSambalpur JunctionX  21:45+3121:55+3210m--1313.864159mECoRSambalpur, Odisha
21|--|ATSAttabira  22:18+3722:20+402m--1338.377164mECoRBargarh, Odisha
22|--|BRGABargarh RoadXO  22:34+4322:39+465m--1356.472185mECoRBargarh, Odisha
23|--|BRPLBarpaliX  22:55+4722:57+542m--1375.665178mECoRBarpali, Odisha
24|--|BLGRBalangir  23:50+1:0423:55+1:105m--1432.647210mECoRBolangir, Odisha
25|--|BUDMBadmal  00:50+5500:52+562m--2476.023209mECoRDumerbahal Rd, Odisha
26|--|TIGTitlagarh JunctionXO  01:45+2601:55+3110m--2496.056212mECoRTitlagarh, Odisha
27%==%KSNGKesingaXO  02:10+3202:12+352m12510.065183mECoRKesinga, Odisha
28%==%RPRDRupra RoadO  02:27+4002:29+422m--2526.244233mECoRKalahandi, Odisha
29%==%NRLRNorla RoadO  02:38+4102:40+422m--2532.860247mECoRKalahandi, Odisha
30%==%AMBAmbodala  03:05+4203:07+432m--2557.839374mECoRState Highway 6, Odisha
31%==%MNGDMunigudaX  03:45+3003:47+322m--2582.841335mECoRMuniguda, Odisha
32%==%THVTherubaliO  04:40+2004:42+242m--2618.831270mECoRRayagada, Odisha
33%==%SPRDSingapuram RoadX  05:00+2705:02+292m--2628.115248mECoRJaykaypur, Odisha
34%==%RGDARayagadaO  05:40+705:55+1415m--2637.473229mECoRRayagada ph.no 06856-222407, Odisha
35%==%PVPTParvatipuram TownXO  06:32-06:34-2m--2682.725121mECoRParvatipuram, Andhra Pradesh
36%==%PVPParvatipuramX  06:38+2006:40+202m--2684.372122mECoRParvatipuram, Andhra Pradesh
37%==%VBLBobbili JunctionX  07:00+2107:03+213m22708.249137mECoRBobbili, Andhra Pradesh
38%==%VZMVizianagaram JunctionX  08:10+1208:15+185m--2762.58463mECoRVizianagaram, Andhra Pradesh
39/==/KTVKottavalasa JunctionX  08:40+3508:42+362m--2797.56058mECoRVizianagaram District, Andhra Pradesh
40/==/SCMSimhachalamX  09:00+1309:02+132m--2815.5927mECoRVisakhapatnam, Andhra Pradesh
41/==/VSKPVisakhapatnam JunctionXO09:55+1410:15+1620m32823.73311mECoRVishakhapatnam 530001, Andhra Pradesh
42/==/DVDDuvvadaX  10:45+1510:47+152m12840.04246mECoRVishakhapatnam District, Andhra Pradesh
43/==/AKPAnakapalle  11:10+1711:11+231m22856.07130mSCRAnakapalle ph.no . 08924-221698, Andhra Pradesh
44/==/YLMElamanchiliX  11:31+2911:32+381m--2879.77123mSCRVisakhapatnam District, Andhra Pradesh
45/==/NRPNarsipatnam Road  11:47+5311:48+551m--2897.58418mSCRVisakhapatnam District, Andhra Pradesh
46/==/TUNITuniX  12:04+1:0212:05+1:031m12919.87124mSCRTuni ph.no. 08854-252172, Andhra Pradesh
47/==/ANVAnnavaram  12:19+1:0912:20+1:111m12936.47627mSCREast Godavari District, Andhra Pradesh
48/==/GLPGollaproluX  12:35+1:0912:36+1:101m--2955.54919mSCRGollaprollu, Andhra Pradesh
49/==/PAPPithapuram  12:43+1:1012:44+1:121m--2961.27222mSCREast Godavari District, Andhra Pradesh
50/==/SLOSamalkot Junction  12:54+1:1712:55+1:181m32973.38418mSCRSamalkot, Andhra Pradesh
51/==/APTAnaparti  13:14+1:2413:15+1:251m--2999.83821mSCREast Godavari District, Andhra Pradesh
52/==/DWPDwarapudi  13:21+1:2413:22+1:271m--21003.52420mSCREast Godavari District, Andhra Pradesh
53/==/RJYRajahmundry  14:11+1:0714:16+1:075m121023.53623mSCRRajahmundry ph.no. 0883-2420541, Andhra Pradesh
54/==/KVRKovvur  14:29+1:1014:30+1:111m321031.36125mSCRWest Godavari, Andhra Pradesh
55/==/NDDNidadavolu Junction  14:44+1:1514:45+1:171m221045.67120mSCRNidadavolu jtn ph.no. 08813-210325, Andhra Pradesh
56/==/TDDTadepalligudemX  15:02+1:2115:03+1:211m321065.68718mSCRTadepalligudem, Andhra Pradesh
57/==/EEEluru  15:36+1:2615:37+1:271m321113.43319mSCREluru Ph.no. 08812 226401., Andhra Pradesh
58/==/BZAVijayawada JunctionX  17:25+5817:45+5720m--21172.76924mSCRVijayawada 520001, Andhra Pradesh
59/==/TELTenali JunctionO  18:12+1:1118:13+1:131m321204.06616mSCRTel: 08644-227834, Andhra Pradesh
60/==/NDONidubrolu  18:33+1:1618:34+1:181m--21226.0659mSCRNidubrolu, Andhra Pradesh
61/==/BPPBapatlaX  18:53+1:2118:54+1:221m--21246.67510mSCRBapatla, Andhra Pradesh
62/==/CLXChiralaX  19:06+1:2519:07+1:281m--21261.7768mSCRChirala, Andhra Pradesh
63/==/CJMChinnaganjamX  19:23+1:2919:24+1:301m--21282.0369mSCRChinna Ganjam, Andhra Pradesh
64/==/OGLOngole  20:12+1:1220:13+1:131m321311.07712mSCROngole, Andhra Pradesh
65/==/SKMSingarayakondaX  20:35+1:2320:36+1:231m221339.29126mSCRSingarayakonda, Andhra Pradesh
66/==/KVZKavaliX  21:01+5421:02+541m221377.07621mSCRKavali, Andhra Pradesh
67/==/BTTRBitraguntaX  21:15+5721:16+591m221393.54515mSCRBitragunta, Andhra Pradesh
68/==/NLRNelloreX  22:02+5422:03+541m321427.81721mSCRNellore, Andhra Pradesh
69/==/GDRGudur Junction  00:18+500:20+72m131466.36919mSCRGudur, Andhra Pradesh
70/==/NYPNayadupeta  00:44+1700:45+181m231493.96833mSRNayudupeta, Andhra Pradesh
71/==/SPESullurupeta  01:09+1601:10+191m231521.2479mSR524121., Andhra Pradesh
72/==/MASChennai Central↵¶02:55+703:25+1030m531603.6579mSRChennai 600003, Tamil Nadu
73/==/TRLTiruvallur  04:09+1504:10+161m--31645.36550mSRTiruvallur, Tamil Nadu
74/==/AJJArakkonam JunctionX  04:35+1804:40+165m--31672.36891mSRArakkonam, Tamil Nadu
75/==/MCNMukundarayapuram  05:19+1405:20+151m--31716.533198mSRSipcot Ranipet, Tamil Nadu
76/==/KPDKatpadi Junction  05:50+605:55+185m131733.177213mSRVellore 632007, Tamil Nadu
77/==/GYMGudiyattam  06:14+1206:15+141m331757.691269mSRVellore, Tamil Nadu
78/==/VNVaniyambadiXO  06:44+1706:45+181m--31801.428357mSRVaniyambadi, Tamil Nadu
79/==/JTJJolarpettai JunctionO  07:18+407:20+82m--31816.943405mSRJolarpettai, Tamil Nadu
80/==/TPTTirupattur  07:30+1407:32+142m--31824.173392mSRTirupattur ph.no. 04179-220062, Tamil Nadu
81/==/SLYSamalpatti  07:51+1607:52+201m--31847.290388mSRSamalpatti ph.no. 04341-245601, Tamil Nadu
82/==/BQIBommidiX  08:23+2708:25+292m--31893.9520mSRBommidi ph.no. 04346-244441, Tamil Nadu
83/==/SASalem JunctionXO  09:15+1909:20+215m--31937.161283mSRSalem, Tamil Nadu
84/==/EDErode JunctionX  10:20+2110:30+3210m231998.570175mSRErode ph.no: 0424-2256111, Tamil Nadu
85/==/TUPTiruppur  11:13+3411:15+342m132048.743305mSRTiruppur. Ph:0421-2200450, Tamil Nadu
86/==/CBECoimbatore Main JunctionX  12:25+1412:30+165m--32099.239416mSRCoimbatore 641001, Tamil Nadu
87/==/PGTPalakkad JunctionX  13:55+814:00+145m--32154.53684mSRPalghat Tel: 0491 2555231, Kerala
88/==/SRRShoranur JunctionX15:15+1415:25+2910m532199.14226mSRShoranur ph.no 0466-2222913, Kerala
89/==/TCRThrissur•  16:12+3016:15+303m132232.1606mSRThrissur Tel: 0487 2423150, Kerala
90/==/AWYAluvaXO  17:10+3217:12+322m132286.71712mSRPh: 0484-2624141, Kerala
91/-=/ERSErnakulam Junction (South)  18:20+518:25+155m432306.1413mSRErnakulam 682016, Kerala
92/--/TUVRTuravur  18:59+2919:00+321m132329.5665mSRThuravoor, Kerala
93/--/SRTLCherthalaO  19:09+3319:10+331m232339.4737mSRPh: 0478- 2812500, Kerala
94/--/MAKMMararikkulamX  19:19+4119:20+511m132350.41312mSRMararikulam, Kerala
95/--/ALLPAlappuzha  20:20+14-332363.6-8mSRPh:0477-2253965, Kerala
Scroll to Top
Scroll to Bottom


Go to Mobile site